Flag for Switzerland Weather past 2 weeks in Bellinzona, Ticino, Switzerland

Now
64 °F

Mild.


Feels Like: 64 °F
Forecast: 62 / 74 °F
Wind: 1 mph from Northeast

Location: Locarno-Magadino

Current Time: Jul 28, 2014 at 9:05:29 AM

Latest Report: Jul 28, 2014 at 8:00 AM


Visibility: N/A

Pressure: 29.90 "Hg

Humidity: 87%

Dew point: 60 °F

Location of BellinzonaLocation

Historic Weather in Bellinzona — Graph

°F

Bellinzona temperature yesterday

Maximum temperature yesterday: 80 °F (at 6:00 PM)
Minimum temperature yesterday: 60 °F (at 6:00 AM)
Average temperature yesterday: 69 °F

Past Weeks' High & Low Weather Summary

 TemperatureHumidityPressure
High87 °F (Jul 18, 4:00 PM)100% (Jul 24, 2:00 AM)30.15 "Hg (Jul 24, 2:00 AM)
Low58 °F (Jul 14, 6:00 AM)43% (Jul 18, 12:00 PM)29.75 "Hg (Jul 21, 5:00 PM)
Average70 °F78%29.94 "Hg
* Reported Jul 13 7:00 AM — Jul 28 7:00 AM, Bellinzona, Weather by CustomWeather, © 2014

Note: Actual official high and low records may vary slightly from our data, if they occured in-between our weather recording intervals... More about our weather records

Advertising

Bellinzona weather history for previous 24 hours

 ConditionsComfort  
Time TempWeatherWind HumidityBarometerVisibility
7:00 AM
Jul 28
62 °FCool.1 mph86%29.91 "HgN/A
6:00 AM60 °FCool.1 mph96%29.91 "HgN/A
5:00 AM60 °FCool.3 mph94%29.90 "HgN/A
4:00 AM60 °FCool.1 mph98%29.91 "HgN/A
3:00 AM61 °FCool.No wind96%29.91 "HgN/A
2:00 AM63 °FMild.No wind94%29.92 "HgN/A
1:00 AM63 °FMild.1 mph95%29.92 "HgN/A
12:00 AM64 °FMild.1 mph93%29.91 "HgN/A
11:00 PM
Jul 27
67 °FMild.No wind88%29.90 "HgN/A
10:00 PM69 °FMild.2 mph90%29.89 "HgN/A
9:00 PM72 °FMild.2 mph82%29.87 "HgN/A
8:00 PM77 °FMild.2 mph68%29.85 "HgN/A
7:00 PM79 °FWarm.7 mph61%29.84 "HgN/A
6:00 PM80 °FWarm.5 mph57%29.84 "HgN/A
5:00 PM78 °FWarm.2 mph60%29.84 "HgN/A
4:00 PM77 °FWarm.3 mph61%29.86 "HgN/A
3:00 PM74 °FMild.3 mph64%29.88 "HgN/A
2:00 PM74 °FMild.5 mph64%29.89 "HgN/A
1:00 PM72 °FMild.3 mph68%29.90 "HgN/A
12:00 PM70 °FMild.3 mph69%29.90 "HgN/A
11:00 AM70 °FMild.5 mph71%29.90 "HgN/A
10:00 AM69 °FMild.5 mph75%29.90 "HgN/A
9:00 AM67 °FMild.1 mph75%29.90 "HgN/A
Weather by CustomWeather, © 2014

See weather overviewHow to use our weather pages